Location: Fossil View Observatory
(30.3980°N, 99.3522°W)
Time: 12:39:00
(UTC-06:00)

Hubble Space Telescope - Visible Passes

Search period start: 12 November 2018 00:00
Search period end: 22 November 2018 00:00
Orbit: 537 x 540 km, 28.5° (Epoch: 11 November)

Date Brightness Start Highest point End Pass type
(mag) Time Alt. Az. Time Alt. Az. Time Alt. Az.
12 Nov 1.8 19:17:16 10° W 19:21:08 38° SSW 19:22:11 32° SSE visible
13 Nov 2.2 19:06:57 10° W 19:10:40 32° SSW 19:12:39 21° SSE visible
14 Nov 2.6 18:56:41 10° WSW 19:00:11 27° SSW 19:03:17 12° SE visible
15 Nov 2.9 18:46:29 10° WSW 18:49:42 22° SSW 18:52:55 10° SSE visible
16 Nov 3.3 18:36:24 10° WSW 18:39:12 18° SSW 18:42:00 10° SSE visible
17 Nov 3.5 18:26:31 10° WSW 18:28:41 14° SSW 18:30:53 10° S visible
18 Nov 3.9 18:17:12 10° SW 18:18:10 11° SSW 18:19:08 10° SSW visible
